TimeMDT,TemperatureF,Dew PointF,Humidity,Sea Level PressureIn,VisibilityMPH,Wind Direction,Wind SpeedMPH,Gust SpeedMPH,PrecipitationIn,Events,Conditions,WindDirDegrees,DateUTC
12:00 AM,16,-12,13,29.68,,SSE,4.6,,,,,150,2012-10-14 06:00:00
12:00 AM,15.8,-12.3,28,29.68,-9999.0,SSE,4.6,-,N/A,,Unknown,150,2012-10-14 06:00:00
1:00 AM,29.7,28.8,96,29.69,-9999.0,ESE,1.2,-,N/A,,Unknown,120,2012-10-14 07:00:00
2:00 AM,72.7,59.5,63,29.68,-9999.0,South,2.3,-,N/A,,Unknown,170,2012-10-14 08:00:00
3:00 AM,29.3,28.6,97,29.68,-9999.0,South,3.5,-,N/A,,Unknown,170,2012-10-14 09:00:00
4:00 AM,-34.1,-62.9,19,29.73,-9999.0,SSE,2.3,-,N/A,,Unknown,160,2012-10-14 10:00:00
5:00 AM,51.3,40.5,67,29.65,-9999.0,SSE,2.3,-,N/A,,Unknown,150,2012-10-14 11:00:00
6:00 AM,64,64,100,29.63,,SE,2.3,,,,,130,2012-10-14 12:00:00
6:00 AM,64.2,64.2,100,29.63,-9999.0,SE,2.3,-,N/A,,Unknown,130,2012-10-14 12:00:00
7:00 AM,42.8,-9999,N/A,29.63,-9999.0,SE,2.3,-,N/A,,Unknown,140,2012-10-14 13:00:00
8:00 AM,28.9,28.4,98,29.63,-9999.0,ESE,3.5,-,N/A,,Unknown,120,2012-10-14 14:00:00
9:00 AM,29.1,28.6,98,29.64,-9999.0,ESE,3.5,-,N/A,,Unknown,120,2012-10-14 15:00:00
10:00 AM,29.5,28.8,97,29.61,-9999.0,ESE,3.5,-,N/A,,Unknown,120,2012-10-14 16:00:00
11:00 AM,30.4,28.9,94,29.60,-9999.0,SE,4.6,-,N/A,,Unknown,130,2012-10-14 17:00:00
12:00 PM,28,27,95,29.59,,SE,4.6,,,,,130,2012-10-14 18:00:00
12:00 PM,28.4,27.1,95,29.59,-9999.0,SE,4.6,-,N/A,,Unknown,130,2012-10-14 18:00:00
1:00 PM,31.6,29.3,91,29.55,-9999.0,ESE,5.8,-,N/A,,Unknown,120,2012-10-14 19:00:00
2:00 PM,68.7,52.5,56,29.52,-9999.0,East,8.1,-,N/A,,Unknown,100,2012-10-14 20:00:00
3:00 PM,-9999,-9999,N/A,-9999,-9999.0,East,10.4,-,N/A,,Unknown,100,2012-10-14 21:00:00
4:00 PM,32.9,30.9,92,29.46,-9999.0,ESE,9.2,-,N/A,,Unknown,110,2012-10-14 22:00:00
5:00 PM,40.5,40.5,100,29.43,-9999.0,East,10.4,-,N/A,,Unknown,100,2012-10-14 23:00:00
6:00 PM,34,24,56,29.42,,ESE,10.4,,,,,110,2012-10-15 00:00:00
6:00 PM,33.8,24.1,68,29.42,-9999.0,ESE,10.4,-,N/A,,Unknown,110,2012-10-15 00:00:00
8:00 PM,34.5,31.3,88,29.39,-9999.0,ESE,12.7,19.6,N/A,,Unknown,110,2012-10-15 02:00:00
9:00 PM,-12.1,-33.5,34,29.40,-9999.0,ESE,12.7,-,N/A,,Unknown,110,2012-10-15 03:00:00
10:00 PM,81.1,78.1,90,29.31,-9999.0,East,11.5,18.4,N/A,,Unknown,100,2012-10-15 04:00:00
11:00 PM,34.3,31.8,90,29.32,-9999.0,East,10.4,-,N/A,,Unknown,90,2012-10-15 05:00:00